Simultaneous Nadir Overpasses (SNOs) Predictions

Prediction of SNOs between AQUA and NOAA-19 Satellite Orbit:

Table of predicted SNOs for the next 14.0 days since TLE Epoch: 9/14/2012
Index Date (AQUA) Time (AQUA) AQUA Lat,Lon Date (NOAA-19) Time (NOAA-19) NOAA-19 Lat,Lon Distance(km) Time Diff (sec)
1 09/15/2012 12:34:43 -46.02, 23.67 09/15/2012 12:33:52 -45.93, 24.10 34.75 51
2 09/15/2012 13:23:24 48.53,-167.71 09/15/2012 13:24:06 48.50,-167.58 10.03 42
3 09/17/2012 17:18:59 -46.06, -47.39 09/17/2012 17:18:28 -45.98, -47.03 29.02 31
4 09/17/2012 18:07:22 49.63, 121.67 09/17/2012 18:08:23 49.61, 121.76 7.06 61
5 09/19/2012 22:03:17 -46.03,-118.47 09/19/2012 22:03:05 -45.96,-118.18 23.64 12
6 09/19/2012 22:48:16 61.57, 57.09 09/19/2012 22:49:29 61.51, 57.60 27.70 73
7 09/22/2012 02:47:31 -46.31, 170.55 09/22/2012 02:47:36 -46.28, 170.80 19.18 5
8 09/22/2012 03:22:28 77.61, 112.47 09/22/2012 03:23:40 77.05, 109.97 86.55 72
9 09/24/2012 07:31:34 -47.29, 99.84 09/24/2012 07:31:55 -47.27, 100.05 16.36 21
10 09/26/2012 11:26:46 46.04,-139.35 09/26/2012 11:25:45 45.96,-138.84 40.56 61




NCC Satellite Simultaneous Nadir Overpasses (SNOs) Prediction Service
